TimeEDT,TemperatureF,Dew PointF,Humidity,Sea Level PressureIn,VisibilityMPH,Wind Direction,Wind SpeedMPH,Gust SpeedMPH,PrecipitationIn,Events,Conditions,WindDirDegrees,DateUTC
12:56 AM,57.9,54.0,87,29.78,10.0,SE,10.4,-,N/A,,Scattered Clouds,130,2012-09-22 04:56:00
1:56 AM,63.0,57.0,81,29.74,10.0,SSE,10.4,20.7,N/A,,Partly Cloudy,160,2012-09-22 05:56:00
2:56 AM,64.0,55.9,75,29.72,10.0,SSE,11.5,19.6,N/A,,Overcast,160,2012-09-22 06:56:00
3:56 AM,64.0,54.0,70,29.72,10.0,South,10.4,-,N/A,,Mostly Cloudy,170,2012-09-22 07:56:00
4:56 AM,66.0,52.0,60,29.71,10.0,SSW,12.7,24.2,N/A,,Mostly Cloudy,200,2012-09-22 08:56:00
5:56 AM,66.0,52.0,60,29.72,10.0,SW,12.7,26.5,N/A,,Overcast,220,2012-09-22 09:56:00
6:40 AM,60.8,53.6,77,29.79,10.0,West,16.1,24.2,N/A,,Overcast,270,2012-09-22 10:40:00
6:56 AM,59.0,53.1,81,29.77,10.0,WSW,15.0,23.0,N/A,,Overcast,250,2012-09-22 10:56:00
7:03 AM,57.2,53.6,88,29.80,8.0,WSW,11.5,21.9,0.01,,Overcast,250,2012-09-22 11:03:00
7:15 AM,57.2,55.4,94,29.80,7.0,WSW,11.5,-,0.01,Rain,Light Rain,250,2012-09-22 11:15:00
7:26 AM,57.2,55.4,94,29.81,4.0,WSW,10.4,-,0.03,Rain,Light Rain,240,2012-09-22 11:26:00
7:56 AM,57.0,55.0,93,29.78,5.0,SW,10.4,-,0.06,,Overcast,220,2012-09-22 11:56:00
8:56 AM,57.9,55.9,93,29.79,10.0,SW,8.1,-,0.01,,Overcast,220,2012-09-22 12:56:00
9:56 AM,57.9,55.0,90,29.81,10.0,WSW,12.7,-,N/A,,Overcast,240,2012-09-22 13:56:00
10:33 AM,57.2,55.4,94,29.82,10.0,SW,9.2,-,0.01,,Overcast,230,2012-09-22 14:33:00
10:56 AM,59.0,55.9,90,29.81,10.0,WSW,12.7,-,0.01,,Overcast,240,2012-09-22 14:56:00
11:04 AM,60.8,55.4,82,29.81,10.0,SW,12.7,-,N/A,,Overcast,230,2012-09-22 15:04:00
11:14 AM,60.8,55.4,82,29.80,10.0,SW,10.4,-,N/A,,Overcast,220,2012-09-22 15:14:00
11:39 AM,60.8,55.4,82,29.81,10.0,WSW,16.1,25.3,N/A,,Overcast,240,2012-09-22 15:39:00
11:56 AM,59.0,55.0,87,29.81,8.0,West,16.1,-,0.00,Rain,Light Rain,260,2012-09-22 15:56:00
12:37 PM,59.0,55.4,88,29.83,10.0,WSW,15.0,-,0.01,,Overcast,240,2012-09-22 16:37:00
12:49 PM,57.2,55.4,94,29.83,10.0,WSW,11.5,-,0.01,,Overcast,250,2012-09-22 16:49:00
12:56 PM,59.0,55.0,87,29.82,10.0,WSW,12.7,-,0.01,,Overcast,250,2012-09-22 16:56:00
1:06 PM,59.0,55.4,88,29.83,10.0,West,11.5,-,N/A,,Overcast,260,2012-09-22 17:06:00
1:22 PM,62.6,55.4,77,29.82,10.0,WSW,15.0,-,N/A,,Mostly Cloudy,250,2012-09-22 17:22:00
1:56 PM,64.0,54.0,70,29.79,10.0,WSW,17.3,23.0,N/A,,Scattered Clouds,240,2012-09-22 17:56:00
2:56 PM,62.6,50.0,63,29.82,10.0,West,16.1,26.5,N/A,,Partly Cloudy,260,2012-09-22 18:56:00
3:56 PM,64.0,45.0,50,29.81,10.0,West,15.0,24.2,N/A,,Clear,260,2012-09-22 19:56:00
4:56 PM,63.0,42.1,46,29.81,10.0,West,15.0,-,N/A,,Clear,260,2012-09-22 20:56:00
5:56 PM,62.1,41.0,46,29.83,10.0,SW,13.8,-,N/A,,Clear,230,2012-09-22 21:56:00
6:56 PM,57.0,42.1,57,29.85,10.0,SW,5.8,-,N/A,,Clear,230,2012-09-22 22:56:00
7:56 PM,55.0,43.0,64,29.85,10.0,SSW,5.8,-,N/A,,Mostly Cloudy,210,2012-09-22 23:56:00
8:34 PM,50.0,44.6,82,29.94,10.0,West,19.6,31.1,0.00,,Overcast,280,2012-09-23 00:34:00
8:56 PM,48.9,45.0,86,29.96,10.0,WNW,10.4,27.6,0.01,Rain,Light Rain,300,2012-09-23 00:56:00
9:06 PM,48.2,44.6,87,29.96,6.0,NW,11.5,21.9,0.02,Rain,Light Rain,310,2012-09-23 01:06:00
9:31 PM,48.2,44.6,87,29.95,10.0,NNW,9.2,-,0.04,Rain,Light Rain,330,2012-09-23 01:31:00
9:56 PM,46.9,45.0,93,29.97,10.0,WNW,5.8,-,0.04,,Overcast,290,2012-09-23 01:56:00
10:56 PM,46.0,44.1,93,30.01,10.0,West,6.9,-,N/A,,Mostly Cloudy,270,2012-09-23 02:56:00
11:09 PM,46.4,44.6,93,30.00,10.0,West,6.9,-,N/A,,Mostly Cloudy,260,2012-09-23 03:09:00
11:56 PM,46.0,43.0,89,30.02,10.0,West,5.8,-,N/A,,Mostly Cloudy,270,2012-09-23 03:56:00